Location: *
(27.7328°N, 85.7797°E)
Time: 13:10:39
(UTC+00:00)

Daily predictions for brighter satellites

Satellite Brightness Start Highest point End
(mag) Time Altitude Azimuth Time Altitude Azimuth Time Altitude Azimuth
ATLAS 5 CENTAUR R/B 2.9 12:51:56 10° SSW 12:54:59 24° SSE 13:02:07 10° E
SeaSat 1 3.6 12:53:35 10° N 12:58:18 48° WNW 13:03:01 10° SW
CSL-04 Debris 4.3 12:53:23 10° SSE 12:58:44 57° ENE 13:04:05 10° N
Cosmos 1544 Rocket 3.9 12:54:42 10° S 12:59:04 75° W 13:03:29 10° N
STARLINK-1125 3.7 12:57:42 10° NW 13:01:49 65° NE 13:05:55 10° SE
SL-4 R/B 2.7 13:00:13 10° WSW 13:03:33 45° NW 13:06:49 10° NNE
STARLINK-1109 3.6 13:02:42 10° NW 13:06:50 74° NE 13:10:57 10° SE
Cosmos 1943 Rocket 3.3 13:02:49 10° NNE 13:07:12 23° ENE 13:11:36 10° ESE
Cosmos 2369 Rocket 3.7 13:04:13 10° NNE 13:07:55 18° ENE 13:11:32 10° ESE
CZ-4 R/B 1.8 13:04:21 10° S 13:08:10 63° W 13:11:58 10° NNW
HJ-1C 4.3 13:05:19 10° SE 13:08:13 29° ENE 13:11:10 10° NNE
STARLINK-1091 3.6 13:07:37 10° NW 13:11:46 84° NE 13:15:54 10° SE
USA 81 4.3 13:06:56 10° N 13:12:12 76° W 13:17:26 10° S
Orbus 7S? 2.2 13:11:06 10° NNW 13:13:30 78° NE 13:16:24 10° SE
Meteor 2-15 Rocket 4.4 13:07:36 10° S 13:13:33 61° E 13:19:30 10° NNE
Cosmos 1939 Rocket 3.1 13:10:49 10° S 13:14:45 70° W 13:18:39 10° NNW
Hubble Space Telescope 2.1 13:12:26 10° SSW 13:15:45 23° SSE 13:18:21 13° ESE
STARLINK-1072 3.6 13:12:39 10° NW 13:16:48 84° SW 13:20:55 10° SE
Cosmos 1818 3.5 13:12:46 10° SSW 13:18:09 76° ESE 13:23:35 10° NNE
Cosmos 1626 2.0 13:15:31 10° N 13:19:13 83° E 13:22:54 10° S
Meteor 2-15 4.5 13:15:38 10° S 13:21:41 86° W 13:27:45 10° N
STARLINK-1096 3.8 13:17:39 10° NW 13:21:47 74° SW 13:25:53 10° SE
Cosmos 1943 3.1 13:17:18 10° SSW 13:22:54 75° ESE 13:28:34 10° NNE
Meteor 1-24 Rocket 4.3 13:20:35 10° NNW 13:25:49 58° W 13:30:59 10° S
CSL-04 Rocket 3.8 13:20:58 10° S 13:26:16 78° WSW 13:31:33 10° NNW
STARLINK-1079 3.9 13:22:36 10° NW 13:26:42 65° SW 13:30:46 10° SSE
Cosmos 2228 4.0 13:23:59 10° SE 13:27:24 24° E 13:30:51 10° NE
ATLAS 3B CENTAUR R/B 4.1 13:21:12 10° W 13:28:11 22° SW 13:32:10 10° S
Cosmos 1606 Rocket 4.4 13:25:05 10° SSE 13:28:49 28° E 13:32:35 10° NNE
Cosmos 2084 Rocket 4.4 13:25:01 10° N 13:29:00 31° ENE 13:31:25 19° ESE
Cosmos 1953 2.2 13:25:44 10° S 13:29:39 68° E 13:33:35 10° NNE
CZ-2C R/B 3.7 13:26:18 11° SE 13:30:23 31° ENE 13:34:38 10° NNE
ARGOS Delta rocket 4.1 13:26:04 10° SSE 13:31:03 57° ENE 13:36:17 10° N
Cosmos 1302 Rocket 4.0 13:25:51 10° NNW 13:31:10 89° WSW 13:36:26 10° SSE
STARLINK-1116 4.2 13:27:37 10° NW 13:31:40 57° SW 13:35:38 10° SSE
OAO 3 Copernicus 4.4 13:28:57 10° WNW 13:33:57 66° NNE 13:37:15 21° E
SEDSat Delta rocket 3.7 13:30:07 10° WNW 13:35:11 55° N 13:38:22 19° ENE
STARLINK-52 3.4 13:32:43 10° SSW 13:35:42 37° SE 13:36:56 26° E
Cosmos 1908 4.3 13:37:26 24° E 13:37:31 24° E 13:40:39 10° NE
H-2A R/B 2.3 13:36:14 10° SSE 13:41:19 48° ENE 13:46:17 10° N
FALCON 9 R/B 4.2 13:36:13 10° W 13:43:41 83° S 14:13:43 24° ESE
GOES 2 Rocket 4.4 13:41:44 10° W 13:45:15 26° SSW 13:47:39 17° SSE
SJ-11-01 4.2 13:44:35 10° SSE 13:49:16 86° E 13:54:00 10° N
STARLINK-1073 4.4 13:50:06 10° NNW 13:53:53 34° NE 13:54:39 32° ENE
ARGOS 3.3 13:50:39 19° SE 13:54:25 54° ENE 13:59:39 10° N
Cosmos 2184 Rocket 4.2 13:51:39 10° N 13:57:40 48° E 14:01:08 24° SE
CZ-2C R/B 3.0 13:54:00 10° NNE 13:58:45 37° E 14:00:00 32° SE
STARLINK-1121 4.2 13:55:01 10° NNW 13:58:53 38° NE 13:59:26 37° ENE
Delta 128 3.7 13:57:48 10° W 14:02:32 87° S 14:04:23 41° E
Meteor 2-10 4.4 13:57:27 10° SSW 14:02:44 69° W 14:08:14 10° N
STARLINK-1106 4.0 13:59:56 10° NNW 14:03:53 43° NE 14:04:14 42° ENE
Aureole 2 Rocket 2.1 14:02:27 10° NNW 14:05:52 89° ENE 14:05:59 84° SSE
ATLAS 2AS CENTAUR R/B 4.2 14:01:23 10° N 14:06:21 19° NE 14:07:37 18° ENE
USA 234 3.2 14:00:51 10° NE 14:07:24 86° NW 14:13:56 10° SW
STARLINK-1112 3.9 14:04:50 10° NNW 14:08:51 49° NE 14:09:00 49° NE
Nadezhda 1 Rocket 3.9 14:05:34 10° S 14:11:55 72° E 14:18:17 10° N
MOS 1 4.2 14:08:21 20° SSE 14:12:20 85° ENE 14:18:00 10° NNW
STARLINK-1128 3.8 14:09:46 10° NNW 14:13:47 56° NE 14:13:47 56° NE
Cosmos 1726 3.6 14:10:25 10° SSW 14:13:53 37° W 14:17:22 10° NNW
Ariane Rocket 3.4 14:10:32 10° S 14:15:31 60° WSW 14:20:32 10° NNW
SJ-6B 2.7 14:15:10 71° SE 14:15:33 81° ENE 14:19:40 10° N
DMSP B5D2-2 3.9 14:12:35 10° NNE 14:17:48 74° ESE 14:23:01 10° S
STARLINK-1113 3.7 14:14:44 10° NW 14:18:34 61° NNE 14:18:34 61° NNE
Cosmos 2154 Rocket 4.2 14:13:51 10° N 14:19:54 46° E 14:20:21 45° E
GEOS 3 Rocket 4.1 14:19:49 28° S 14:22:20 56° WSW 14:27:24 10° NW
Cosmos 2058 Rocket 3.9 14:25:05 39° NNE 14:25:05 39° NNE 14:28:02 10° NNE
FALCON 9 DEB 4.3 14:20:16 10° WSW 14:23:36 42° NW 14:23:58 41° NNW
STARLINK-1119 3.8 14:19:40 10° NW 14:23:21 64° N 14:23:21 64° N
Cosmos 1190 Rocket 3.9 14:18:58 10° SSW 14:24:17 86° ESE 14:29:36 10° NNE
Cosmos 1140 Rocket 3.3 14:21:16 10° S 14:26:27 77° ESE 14:31:38 10° NNE
Resurs 01 Rocket 3.6 14:29:01 18° NNE 14:29:01 18° NNE 14:30:21 10° NNE
ATLAS 5 CENTAUR R/B 2.1 14:24:29 10° SW 14:28:24 52° WNW 14:32:34 10° NNE
STARLINK-1114 3.9 14:24:37 10° NW 14:28:08 62° NNW 14:28:08 62° NNW
MOS 1 Rocket 3.5 14:25:00 10° NNE 14:30:26 86° ESE 14:33:21 29° S
USA 186 3.6 14:31:48 30° WSW 14:32:05 31° W 14:35:06 10° NW
ISS -1.6 14:29:47 10° NNW 14:31:15 23° NNW 14:31:15 23° NNW
STARLINK-1130 (DARKSAT) 4.1 14:29:36 10° NW 14:32:55 56° NW 14:32:55 56° NW
Cosmos 1726 Rocket 4.5 14:34:20 17° SSW 14:37:31 47° W 14:41:47 10° N
STARLINK-1084 4.4 14:34:35 10° NW 14:37:43 49° NW 14:37:43 49° NW
Meteor 2-17 Rocket 4.3 14:33:10 10° N 14:39:13 67° E 14:39:13 67° E
SPOT 3 Rocket 3.5 14:43:44 84° WNW 14:43:44 84° WNW 14:48:51 10° NNW
Cosmos 2074 Rocket 4.4 14:38:17 10° NNW 14:44:27 60° W 14:48:14 24° SSW
Cosmos 1943 Rocket 3.6 14:45:57 10° NW 14:50:53 33° WSW 14:53:28 22° SSW
Cosmos 2369 Rocket 3.0 14:46:42 10° NNW 14:52:06 47° WSW 14:53:23 40° SW
Hubble Space Telescope 3.2 14:52:34 10° WSW 14:53:43 18° WSW 14:53:43 18° WSW
BREEZE-M DEB 4.4 15:06:58 10° NW 15:19:25 71° W 15:19:25 71° W
Centaur AC-42 4.5 15:20:00 10° WSW 15:20:10 11° WSW 15:20:10 11° WSW
NOSS 3-4 (A) 4.4 15:18:26 10° NNW 15:23:59 51° N 15:23:59 51° N
NOSS 3-4 (C) 4.4 15:18:32 10° NNW 15:24:04 50° N 15:24:04 50° N
ATLAS 2AS CENTAUR R/B 3.9 15:50:48 10° NNW 15:55:05 38° NW 15:55:05 38° NW
CENTAUR R/B 3.4 21:10:40 41° NE 21:10:40 41° NE 21:14:53 10° NE
IDEFIX/ARIANE 42P 3.9 21:16:18 10° NNE 21:19:30 36° NE 21:19:30 36° NE
NOSS 3-2 (C) 4.1 21:30:02 43° N 21:30:02 43° N 21:34:11 10° NNE
Cosmos 2237 Rocket 3.3 21:22:49 10° N 21:35:27 - SSE 21:26:25 38° N
MSX 4.2 21:33:03 10° NNE 21:38:43 58° E 21:39:24 54° SE
Cosmos 2297 Rocket 3.9 21:42:15 21° NNW 21:42:15 21° NNW 21:44:32 10° N
Meteor 2-4 Rocket 4.2 21:39:57 56° SE 21:40:47 61° E 21:46:36 10° NNE
Chandra Rocket (1) 4.5 21:37:31 44° WSW 21:44:46 81° SSE 21:51:45 10° E
Cosmos 2142 Rocket 4.3 21:45:04 10° N 21:51:23 79° W 21:51:25 79° W
SWIFT 4.3 22:00:35 22° SE 22:00:35 22° SE 22:02:34 10° ESE
ATLAS 3B R/B 2.5 22:02:08 54° SSW 22:03:50 89° WNW 22:10:30 10° NNE
Cosmos 2227 Rocket 3.9 22:07:44 18° NW 22:07:44 18° NW 22:10:02 10° NNW
Cosmos 2221 Rocket 4.5 22:08:07 39° NNW 22:08:07 39° NNW 22:11:01 10° N
PAYLOAD A 4.1 22:06:45 10° NNE 22:12:07 77° ESE 22:14:32 33° S
Nadezhda 4 Rocket 3.9 22:10:56 30° S 22:14:14 83° W 22:20:35 10° N
CZ-4B R/B 2.6 22:16:06 37° N 22:16:06 37° N 22:18:21 10° N
CZ-2C R/B 2.5 22:11:16 10° NNE 22:15:48 66° E 22:18:02 29° S
Cosmos 1867 3.8 22:14:34 36° S 22:16:44 68° ESE 22:22:08 10° NNE
Gbstr 26 Del rocket 4.2 22:15:56 32° SSW 22:18:57 62° SE 22:24:28 10° NE
Meteor 1-13 Rocket 4.1 22:18:29 27° S 22:21:47 83° W 22:27:30 10° N
Cosmos 2279 Rocket 4.1 22:18:02 10° NNW 22:24:00 49° W 22:26:24 33° SW
Okean 2 Rocket 3.0 22:22:48 10° N 22:27:19 85° W 22:31:50 10° S
Cosmos 1300 Rocket 3.6 22:23:15 10° N 22:27:34 76° E 22:31:52 10° S
Cosmos 2151 Rocket 4.0 22:23:54 10° N 22:28:14 61° E 22:32:34 10° SSE
Cosmos 494 Rocket 4.3 22:24:51 10° N 22:30:06 70° ENE 22:35:19 10° SSE
BREEZE-M DEB (TANK) 3.6 22:28:02 10° NNW 22:31:58 50° NE 22:36:50 10° ESE
USA 234 4.5 22:27:04 10° ESE 22:33:04 41° NE 22:39:05 10° NNW
Meteor 1-12 Rocket 4.3 22:28:57 10° N 22:34:54 85° E 22:40:42 10° S
Cosmos 1378 Rocket 3.7 22:31:57 12° S 22:35:59 74° E 22:40:18 10° N
FALCON 9 DEB 3.3 22:35:11 29° NNW 22:36:47 69° NE 22:40:11 10° SE
STARLINK-29 2.8 22:38:56 51° NW 22:39:38 89° W 22:42:53 10° SE
PSLV R/B 4.4 22:37:42 10° NNW 22:41:31 31° WNW 22:41:31 31° WNW
Cosmos 1066 Rocket 4.5 22:39:01 10° S 22:44:48 75° E 22:50:39 10° NNE
SL-16 R/B 2.1 22:41:50 10° NNW 22:47:30 81° WSW 22:53:09 10° SSE
Cosmos 1048 Rocket 4.4 22:42:56 10° NNW 22:47:55 39° W 22:52:52 10° SSW
CZ-4B R/B 3.8 22:44:12 10° NNE 22:48:31 55° E 22:52:55 10° S
Meteor 1-23 Rocket 4.2 22:45:17 10° S 22:50:57 87° W 22:56:43 10° N
ASTRO E2 3.1 22:54:41 30° WSW 22:56:06 42° SSW 22:59:51 10° SE
OE (NEXTSAT) 4.3 22:56:28 14° NW 22:59:24 83° NNE 23:02:53 10° SE
CENTAUR R/B 4.0 22:57:51 14° WNW 22:59:57 17° NW 23:03:57 10° N
IDEFIX/ARIANE 42P 4.4 22:58:21 10° NW 23:00:19 12° WNW 23:00:19 12° WNW
Cosmos 1356 3.6 22:57:47 10° NNW 23:01:04 44° W 23:04:19 10° SSW
Timation 1 Rocket 4.4 22:56:28 13° SW 23:01:47 58° WNW 23:07:42 10° N
Cosmos 1484 Rocket 2.7 23:00:37 10° NNE 23:04:24 87° ESE 23:08:07 10° S
Shenzhou-11 Module 1.4 23:06:36 28° SW 23:07:45 90° N 23:10:18 10° NE
Palapa 6 Rocket 3.6 23:07:28 19° WSW 23:10:01 41° S 23:14:22 10° ESE
Cosmos 2237 Rocket4.423:17:37SSW23:17:37SSW23:08:00WNW
Delta 142 3.8 23:10:52 15° W 23:15:23 83° N 23:19:50 10° E
Cosmos 1975 Rocket 3.4 23:12:13 10° S 23:16:30 69° E 23:20:50 10° N
Cosmos 2263 Rocket 2.5 23:13:01 10° SW 23:18:24 46° WNW 23:23:50 10° N
Okean 1 Rocket 3.0 23:15:00 10° N 23:19:22 77° W 23:23:45 10° S
DELTA 2 R/B(2) 3.2 23:18:29 19° SW 23:19:34 84° SE 23:22:32 10° ENE
STARLINK-52 3.9 23:17:35 11° WNW 23:20:14 28° SW 23:23:03 10° S
Cosmos 1437 Rocket 3.1 23:22:42 10° SSW 23:26:39 49° W 23:30:37 10° N
ATLAS 5 CENTAUR R/B 3.7 23:20:48 10° NNW 23:26:46 48° ENE 23:33:26 10° SE
COSMO-SKYMED 1 3.7 23:22:39 10° SSE 23:26:50 50° ENE 23:31:01 10° N
Cosmos 1378 3.2 23:25:10 10° SSW 23:28:47 55° W 23:32:26 10° N
H-2A R/B 2.7 23:25:45 10° N 23:29:32 42° WNW 23:33:11 10° SW
Lacrosse 4 Rocket 4.3 23:28:06 10° SSE 23:31:01 18° ESE 23:33:58 10° ENE
Cosmos 1689 Rocket 4.2 23:35:58 10° WSW 23:36:45 11° W 23:37:32 10° W
SWIFT 3.6 23:36:48 10° WSW 23:40:29 29° S 23:44:09 10° SE
ADEOS Rocket 4.5 23:36:40 10° SSE 23:44:14 58° ENE 23:51:39 10° N
